When you browse on this site, cookies collect data to enhance your experience and personalize the content and advertising you see.
Visit our Privacy Policy to learn more. By continuing to use the site, you agree to this use of cookies and data.
  • In Deutschland
  • Länderverzeichnis
  • Für 7 Tage
  • Wassertemperatur
  • Satellitenkarten
  • Wetterkarte
  • Widgets
  • user-avatar
    Anmelden

    Stündliche Wetter Betim

    Heute, 23 Februar, Samstag

    Zeit Temperatur Niederschläge Wind Luftdruck Luftfeuchtigkeit
    00:00 +24°C° 0 mm 1 m/S 690 mmHg 84%
    01:00 +23°C° 0 mm 1 m/S 690 mmHg 85%
    02:00 +23°C° 0 mm 1 m/S 690 mmHg 87%
    03:00 +22°C° 0 mm 1 m/S 690 mmHg 86%
    04:00 +22°C° 0 mm 1 m/S 689 mmHg 87%
    05:00 +22°C° 0 mm 1 m/S 689 mmHg 88%
    06:00 +21°C° 0 mm 1 m/S 689 mmHg 89%
    07:00 +23°C° 0 mm 1 m/S 690 mmHg 82%
    08:00 +26°C° 0 mm 1 m/S 690 mmHg 76%
    09:00 +28°C° 0 mm 2 m/S 691 mmHg 69%
    10:00 +29°C° 0 mm 2 m/S 691 mmHg 63%
    11:00 +30°C° 0 mm 2 m/S 691 mmHg 58%
    12:00 +32°C° 0 mm 2 m/S 690 mmHg 52%
    13:00 +32°C° 0 mm 2 m/S 690 mmHg 51%
    14:00 +32°C° 0 mm 2 m/S 690 mmHg 50%
    15:00 +34°C° 0 mm 2 m/S 689 mmHg 49%
    16:00 +31°C° 0 mm 2 m/S 689 mmHg 55%
    17:00 +30°C° 0 mm 2 m/S 688 mmHg 61%
    18:00 +29°C° 0 mm 1 m/S 688 mmHg 67%
    19:00 +28°C° 0 mm 1 m/S 688 mmHg 70%
    20:00 +26°C° 0 mm 1 m/S 688 mmHg 74%
    21:00 +25°C° 0 mm 1 m/S 688 mmHg 77%
    22:00 +25°C° 0 mm 1 m/S 688 mmHg 79%
    23:00 +24°C° 0 mm 1 m/S 688 mmHg 81%

    Morgen, 24 Februar, Sonntag

    Zeit Temperatur Niederschläge Wind Luftdruck Luftfeuchtigkeit
    00:00 +24°C° 0 mm 1 m/S 689 mmHg 83%
    01:00 +23°C° 0 mm 1 m/S 688 mmHg 84%
    02:00 +23°C° 0 mm 1 m/S 688 mmHg 85%
    03:00 +23°C° 0 mm 1 m/S 687 mmHg 86%
    04:00 +22°C° 0 mm 1 m/S 687 mmHg 87%
    05:00 +22°C° 0 mm 1 m/S 687 mmHg 88%
    06:00 +22°C° 0 mm 1 m/S 687 mmHg 89%
    07:00 +24°C° 0 mm 1 m/S 688 mmHg 82%
    08:00 +26°C° 0 mm 1 m/S 689 mmHg 74%
    09:00 +29°C° 0 mm 2 m/S 690 mmHg 67%
    10:00 +30°C° 0 mm 2 m/S 690 mmHg 63%
    11:00 +31°C° 0 mm 2 m/S 690 mmHg 60%
    12:00 +33°C° 0 mm 3 m/S 690 mmHg 57%
    13:00 +33°C° 0.1 mm 3 m/S 689 mmHg 56%
    14:00 +32°C° 0.1 mm 2 m/S 688 mmHg 56%
    15:00 +32°C° 0.1 mm 2 m/S 688 mmHg 56%
    16:00 +31°C° 0.2 mm 2 m/S 687 mmHg 61%
    17:00 +30°C° 0.2 mm 1 m/S 687 mmHg 66%
    18:00 +29°C° 0.2 mm 1 m/S 687 mmHg 70%
    19:00 +28°C° 0 mm 1 m/S 687 mmHg 73%
    20:00 +27°C° 0 mm 1 m/S 687 mmHg 76%
    21:00 +25°C° 0 mm 1 m/S 688 mmHg 79%
    22:00 +23°C° 0 mm 0 m/S 688 mmHg 80%
    23:00 +23°C° 0 mm 0 m/S 688 mmHg 81%

    übermorgen, 25 Februar, Montag

    Zeit Temperatur Niederschläge Wind Luftdruck Luftfeuchtigkeit
    00:00 +22°C° 0 mm 0 m/S 688 mmHg 82%
    01:00 +22°C° 0 mm 0 m/S 687 mmHg 83%
    02:00 +22°C° 0 mm 0 m/S 687 mmHg 84%
    03:00 +21°C° 0 mm 0 m/S 686 mmHg 85%
    04:00 +21°C° 0 mm 0 m/S 687 mmHg 86%
    05:00 +21°C° 0 mm 0 m/S 687 mmHg 87%
    06:00 +21°C° 0 mm 0 m/S 687 mmHg 88%
    07:00 +23°C° 0 mm 0 m/S 687 mmHg 81%
    08:00 +27°C° 0 mm 1 m/S 688 mmHg 75%
    09:00 +29°C° 0 mm 1 m/S 689 mmHg 68%
    10:00 +30°C° 0 mm 2 m/S 689 mmHg 64%
    11:00 +31°C° 0 mm 2 m/S 689 mmHg 59%
    12:00 +32°C° 0 mm 2 m/S 689 mmHg 55%
    13:00 +33°C° 0.5 mm 3 m/S 688 mmHg 57%
    14:00 +33°C° 0.5 mm 3 m/S 687 mmHg 60%
    15:00 +33°C° 0.5 mm 3 m/S 687 mmHg 62%
    16:00 +31°C° 0.2 mm 2 m/S 686 mmHg 65%
    17:00 +30°C° 0.2 mm 2 m/S 686 mmHg 68%
    18:00 +29°C° 0.2 mm 1 m/S 686 mmHg 72%
    19:00 +28°C° 0.4 mm 1 m/S 687 mmHg 75%
    20:00 +26°C° 0.4 mm 1 m/S 687 mmHg 78%
    21:00 +25°C° 0.4 mm 1 m/S 688 mmHg 81%
    22:00 +25°C° 0.2 mm 1 m/S 688 mmHg 82%
    23:00 +25°C° 0.2 mm 1 m/S 688 mmHg 83%

    26 Februar, Dienstag

    Zeit Temperatur Niederschläge Wind Luftdruck Luftfeuchtigkeit
    00:00 +22°C° 0.2 mm 0 m/S 687 mmHg 84%
    01:00 +22°C° 0.7 mm 0 m/S 687 mmHg 85%
    02:00 +22°C° 0.7 mm 0 m/S 687 mmHg 86%
    03:00 +21°C° 0.7 mm 0 m/S 686 mmHg 87%
    04:00 +21°C° 0 mm 0 m/S 687 mmHg 87%
    05:00 +21°C° 0 mm 0 m/S 687 mmHg 87%
    06:00 +21°C° 0 mm 0 m/S 687 mmHg 87%
    07:00 +25°C° 0.4 mm 1 m/S 688 mmHg 82%
    08:00 +27°C° 0.4 mm 1 m/S 688 mmHg 77%
    09:00 +28°C° 0.4 mm 1 m/S 689 mmHg 72%
    10:00 +30°C° 0.5 mm 2 m/S 689 mmHg 66%
    11:00 +31°C° 0.5 mm 2 m/S 689 mmHg 60%
    12:00 +32°C° 0.5 mm 2 m/S 689 mmHg 54%
    13:00 +33°C° 0.6 mm 3 m/S 688 mmHg 57%
    14:00 +31°C° 0.6 mm 3 m/S 688 mmHg 60%
    15:00 +31°C° 0.6 mm 3 m/S 687 mmHg 63%
    16:00 +30°C° 1.7 mm 3 m/S 687 mmHg 69%
    17:00 +28°C° 1.7 mm 2 m/S 687 mmHg 75%
    18:00 +26°C° 1.7 mm 2 m/S 687 mmHg 81%
    19:00 +26°C° 0.4 mm 1 m/S 687 mmHg 81%
    20:00 +25°C° 0.4 mm 1 m/S 687 mmHg 82%
    21:00 +24°C° 0.4 mm 1 m/S 688 mmHg 82%
    22:00 +24°C° 0 mm 1 m/S 688 mmHg 83%
    23:00 +24°C° 0 mm 1 m/S 688 mmHg 85%

    27 Februar, Mittwoch

    Zeit Temperatur Niederschläge Wind Luftdruck Luftfeuchtigkeit
    00:00 +23°C° 0 mm 1 m/S 688 mmHg 86%
    01:00 +23°C° 0.3 mm 1 m/S 687 mmHg 86%
    02:00 +23°C° 0.3 mm 1 m/S 687 mmHg 87%
    03:00 +22°C° 0.3 mm 1 m/S 687 mmHg 88%
    04:00 +22°C° 0.1 mm 1 m/S 687 mmHg 88%
    05:00 +22°C° 0.1 mm 1 m/S 687 mmHg 88%
    06:00 +22°C° 0.1 mm 1 m/S 687 mmHg 88%
    07:00 +24°C° 0 mm 1 m/S 688 mmHg 83%
    08:00 +25°C° 0 mm 1 m/S 688 mmHg 77%
    09:00 +27°C° 0 mm 2 m/S 689 mmHg 72%
    10:00 +28°C° 0 mm 2 m/S 689 mmHg 67%
    11:00 +30°C° 0 mm 3 m/S 689 mmHg 61%
    12:00 +31°C° 0 mm 3 m/S 689 mmHg 55%
    13:00 +31°C° 0.7 mm 3 m/S 688 mmHg 59%
    14:00 +30°C° 0.7 mm 3 m/S 688 mmHg 62%
    15:00 +30°C° 0.7 mm 3 m/S 687 mmHg 66%
    16:00 +29°C° 1.2 mm 2 m/S 687 mmHg 71%
    17:00 +27°C° 1.2 mm 2 m/S 687 mmHg 76%
    18:00 +26°C° 1.2 mm 1 m/S 687 mmHg 81%
    19:00 +25°C° 0.8 mm 1 m/S 688 mmHg 82%
    20:00 +25°C° 0.8 mm 1 m/S 688 mmHg 82%
    21:00 +22°C° 0.8 mm 0 m/S 688 mmHg 83%
    22:00 +22°C° 0.5 mm 0 m/S 688 mmHg 84%
    23:00 +21°C° 0.5 mm 0 m/S 688 mmHg 84%

    28 Februar, Donnerstag

    Zeit Temperatur Niederschläge Wind Luftdruck Luftfeuchtigkeit
    00:00 +21°C° 0.5 mm 0 m/S 688 mmHg 85%
    01:00 +21°C° 0.4 mm 0 m/S 688 mmHg 86%
    02:00 +21°C° 0.4 mm 0 m/S 687 mmHg 87%
    03:00 +21°C° 0.4 mm 0 m/S 687 mmHg 89%
    04:00 +22°C° 0.4 mm 1 m/S 687 mmHg 89%
    05:00 +22°C° 0.4 mm 1 m/S 687 mmHg 90%
    06:00 +22°C° 0.4 mm 1 m/S 688 mmHg 91%
    07:00 +23°C° 0.2 mm 1 m/S 688 mmHg 89%
    08:00 +23°C° 0.2 mm 2 m/S 688 mmHg 87%
    09:00 +24°C° 0.2 mm 2 m/S 689 mmHg 86%
    10:00 +25°C° 0.5 mm 3 m/S 689 mmHg 81%
    11:00 +27°C° 0.5 mm 3 m/S 689 mmHg 77%
    12:00 +28°C° 0.5 mm 4 m/S 689 mmHg 72%
    13:00 +27°C° 1.5 mm 3 m/S 688 mmHg 77%
    14:00 +26°C° 1.5 mm 3 m/S 688 mmHg 81%
    15:00 +25°C° 1.5 mm 2 m/S 687 mmHg 85%
    16:00 +25°C° 1.7 mm 2 m/S 687 mmHg 87%
    17:00 +24°C° 1.7 mm 1 m/S 687 mmHg 88%
    18:00 +22°C° 1.7 mm 0 m/S 688 mmHg 90%
    19:00 +21°C° 0.7 mm 0 m/S 688 mmHg 89%
    20:00 +21°C° 0.7 mm 0 m/S 689 mmHg 89%
    21:00 +21°C° 0.7 mm 0 m/S 689 mmHg 89%
    22:00 +20°C° 1.3 mm 0 m/S 689 mmHg 90%
    23:00 +20°C° 1.3 mm 0 m/S 689 mmHg 91%
    Mehr zeigen